GW0536 Weather Reports


time (UTC)temp
C
wind
direction
speed
KPH
gust
KPH
rain 1hr
cm
rain 24hr
cm
rain mn
cm
humidity
%
barometer
mb
20260504202530 29 26 14.5 24.1 0.00 0.00 0.00 75 1013.3
20260504202030 29 5 12.9 22.5 0.00 0.00 0.00 75 1013.4
20260504201542 29 350 12.9 22.5 0.00 0.00 0.00 75 1013.4
20260504201030 30 340 14.5 24.1 0.00 0.00 0.00 74 1013.4
20260504200530 30 333 14.5 25.7 0.00 0.00 0.00 74 1013.4
20260504200046 30 348 16.1 25.7 0.00 0.00 0.00 74 1013.3
20260504195530 30 16 14.5 24.1 0.00 0.00 0.00 74 1013.3
20260504195030 30 9 14.5 22.5 0.00 0.00 0.00 74 1013.3
20260504194551 30 18 12.9 29.0 0.00 0.00 0.00 75 1013.4
20260504194030 30 5 14.5 29.0 0.00 0.00 0.00 75 1013.5
20260504193534 29 36 14.5 29.0 0.00 0.00 0.00 75 1013.5
20260504193048 29 17 16.1 27.4 0.00 0.00 0.00 75 1013.6
20260504192529 30 10 12.9 24.1 0.00 0.00 0.00 75 1013.6
20260504192032 30 22 14.5 25.7 0.00 0.00 0.00 75 1013.4
20260504191543 29 32 12.9 27.4 0.00 0.00 0.00 75 1013.5
20260504191031 29 36 16.1 27.4 0.00 0.00 0.00 74 1013.6
20260504190530 29 5 16.1 27.4 0.00 0.00 0.00 74 1013.5
20260504190050 30 5 14.5 30.6 0.00 0.00 0.00 74 1013.5
20260504185530 30 352 14.5 32.2 0.00 0.00 0.00 73 1013.5
20260504185035 30 27 16.1 32.2 0.00 0.00 0.00 73 1013.7
20260504184540 30 12 17.7 32.2 0.00 0.00 0.00 73 1013.6
20260504184033 30 5 16.1 29.0 0.00 0.00 0.00 73 1013.7
20260504183532 30 17 17.7 29.0 0.00 0.00 0.00 73 1013.9
20260504183045 30 5 16.1 27.4 0.00 0.00 0.00 73 1014.0
20260504182530 30 22 14.5 27.4 0.00 0.00 0.00 73 1014.1
20260504182029 30 42 16.1 29.0 0.00 0.00 0.00 74 1014.2
20260504181548 30 41 14.5 29.0 0.00 0.00 0.00 73 1014.2
20260504181036 30 38 14.5 27.4 0.00 0.00 0.00 74 1014.3
20260504180532 29 14 17.7 27.4 0.00 0.00 0.00 74 1014.3
20260504180049 30 347 17.7 25.7 0.00 0.00 0.00 74 1014.5
20260504175533 30 16 14.5 22.5 0.00 0.00 0.00 75 1014.6
20260504175030 29 38 16.1 25.7 0.00 0.00 0.00 74 1014.7
20260504174550 30 352 16.1 25.7 0.00 0.00 0.00 74 1014.8
20260504174029 29 323 17.7 25.7 0.00 0.00 0.00 74 1014.8
20260504173531 30 331 16.1 24.1 0.00 0.00 0.00 74 1014.9
20260504173045 30 344 14.5 22.5 0.00 0.00 0.00 74 1014.9
20260504172530 30 350 16.1 22.5 0.00 0.00 0.00 73 1014.9
20260504172030 30 348 9.7 25.7 0.00 0.00 0.00 73 1014.9
20260504171546 30 36 12.9 25.7 0.00 0.00 0.00 73 1014.9
20260504171031 30 55 14.5 25.7 0.00 0.00 0.00 73 1015.0
20260504170530 30 10 14.5 22.5 0.00 0.00 0.00 73 1015.0
20260504151030 28 340 14.5 22.5 0.00 0.00 0.00 74 1016.2
20260504150530 28 352 14.5 24.1 0.00 0.00 0.00 74 1016.1
20260504141033 30 22 12.9 22.5 0.00 0.00 0.00 70 1016.4
20260504140530 30 21 11.3 22.5 0.00 0.00 0.00 67 1016.3
20260504130529 28 36 11.3 27.4 0.00 0.00 0.00 68 1016.2
20260504110529 25 352 1.6 8.0 0.00 0.00 0.00 82 1016.4
20260504100529 23 0 3.2 6.4 0.00 0.00 0.00 82 1016.0
20260504081552 23 0 1.6 9.7 0.00 0.00 0.00 82 1015.3
20260504081031 23 121 1.6 9.7 0.00 0.00 0.00 82 1015.3
20260504080531 23 109 3.2 9.7 0.00 0.00 0.00 82 1015.3
20260504080109 23 144 3.2 11.3 0.00 0.00 0.00 82 1015.3
20260504050532 23 84 1.6 9.7 0.00 0.00 0.00 80 1016.0
20260504045532 23 105 1.6 6.4 0.00 0.00 0.00 80 1016.1
20260504045030 23 116 0.0 11.3 0.00 0.00 0.00 80 1016.2
20260504044546 23 125 1.6 11.3 0.00 0.00 0.00 80 1016.4
20260504044034 23 108 0.0 6.4 0.00 0.00 0.00 80 1016.5
20260504043534 23 0 0.0 6.4 0.00 0.00 0.00 80 1016.6
20260504043045 23 110 1.6 4.8 0.00 0.00 0.00 80 1016.8
20260504042531 23 112 0.0 4.8 0.00 0.00 0.00 80 1016.8
20260504042032 23 0 0.0 3.2 0.00 0.00 0.00 80 1016.8
20260504041546 23 0 0.0 3.2 0.00 0.00 0.00 80 1016.9
20260504041032 23 0 0.0 3.2 0.00 0.00 0.00 80 1017.0
20260504040533 23 0 0.0 3.2 0.00 0.00 0.00 80 1017.0
20260504040106 23 0 0.0 1.6 0.00 0.00 0.00 79 1017.0
20260504035533 24 0 0.0 3.2 0.00 0.00 0.00 79 1017.1
20260504035032 24 0 0.0 3.2 0.00 0.00 0.00 79 1017.2
20260504034541 24 0 0.0 1.6 0.00 0.00 0.00 79 1017.2
20260504034033 24 0 0.0 1.6 0.00 0.00 0.00 79 1017.3
20260504033534 24 0 0.0 4.8 0.00 0.00 0.00 79 1017.3
20260504033046 24 0 0.0 4.8 0.00 0.00 0.00 78 1017.3
20260504032534 24 0 1.6 4.8 0.00 0.00 0.00 78 1017.2
20260504032034 25 0 0.0 3.2 0.00 0.00 0.00 78 1017.3
20260504031545 25 0 0.0 4.8 0.00 0.00 0.00 77 1017.3
20260504031034 25 63 0.0 4.8 0.00 0.00 0.00 77 1017.2
20260504030533 25 0 0.0 3.2 0.00 0.00 0.00 77 1017.3
20260504030045 25 0 0.0 3.2 0.00 0.00 0.00 76 1017.3
20260504025533 25 0 0.0 3.2 0.00 0.00 0.00 76 1017.3
20260504025033 25 0 0.0 1.6 0.00 0.00 0.00 76 1017.2
20260504024547 25 0 0.0 4.8 0.00 0.00 0.00 76 1017.1
20260504024033 25 0 0.0 3.2 0.00 0.00 0.00 76 1017.1
20260504023529 25 0 0.0 3.2 0.00 0.00 0.00 75 1016.8
20260504023047 26 0 0.0 1.6 0.00 0.00 0.00 75 1016.8
20260504022533 26 0 0.0 1.6 0.00 0.00 0.00 75 1016.8
20260504022031 26 100 0.0 1.6 0.00 0.00 0.00 74 1016.7
20260504021540 26 0 0.0 0.0 0.00 0.00 0.00 74 1016.6
20260504021029 26 0 0.0 3.2 0.00 0.00 0.00 74 1016.6
20260504020531 26 0 0.0 1.6 0.00 0.00 0.00 74 1016.6
20260504020039 26 108 0.0 3.2 0.00 0.00 0.00 73 1016.5
20260504015531 26 0 0.0 3.2 0.00 0.00 0.00 73 1016.5
20260504015029 26 0 0.0 6.4 0.00 0.00 0.00 73 1016.3
20260504014557 26 105 1.6 6.4 0.00 0.00 0.00 73 1016.3
20260504014029 26 14 1.6 8.0 0.00 0.00 0.00 73 1016.2
20260504013530 26 136 3.2 8.0 0.00 0.00 0.00 73 1016.2
20260504013045 26 121 4.8 9.7 0.00 0.00 0.00 73 1016.2
20260504012532 26 112 4.8 11.3 0.00 0.00 0.00 74 1016.1
20260504012031 26 130 4.8 12.9 0.00 0.00 0.00 75 1016.1
20260504011546 26 122 6.4 12.9 0.00 0.00 0.00 76 1016.0
20260504011030 26 120 6.4 14.5 0.00 0.00 0.00 76 1016.0
20260504010531 26 112 3.2 14.5 0.00 0.00 0.00 77 1016.0
20260504010050 26 98 4.8 11.3 0.00 0.00 0.00 78 1016.0
20260504005528 26 121 3.2 11.3 0.00 0.00 0.00 78 1015.9
20260504005031 26 130 4.8 11.3 0.00 0.00 0.00 78 1016.0
20260504004545 26 127 3.2 9.7 0.00 0.00 0.00 78 1015.9
20260504004031 26 107 3.2 9.7 0.00 0.00 0.00 78 1015.9
20260504003532 27 111 1.6 6.4 0.00 0.00 0.00 78 1015.8
20260504003040 27 42 1.6 6.4 0.00 0.00 0.00 78 1015.8
20260504002530 27 0 0.0 6.4 0.00 0.00 0.00 78 1015.8
20260504002030 27 60 0.0 6.4 0.00 0.00 0.00 77 1015.6
20260504001602 27 106 3.2 6.4 0.00 0.00 0.00 77 1015.6
20260504001029 27 107 0.0 6.4 0.00 0.00 0.00 77 1015.5
20260504000530 27 84 1.6 6.4 0.00 0.00 0.00 77 1015.4
20260504000056 27 45 1.6 4.8 0.00 0.00 0.00 77 1015.4
20260503235530 27 23 1.6 6.4 0.00 0.00 0.00 77 1015.3
20260503235028 27 71 1.6 6.4 0.00 0.00 0.00 77 1015.3
20260503234545 27 85 1.6 6.4 0.00 0.00 0.00 76 1015.2
20260503234034 27 54 0.0 11.3 0.00 0.00 0.00 76 1015.2
20260503233532 27 105 1.6 11.3 0.00 0.00 0.00 76 1015.2
20260503233045 27 0 3.2 14.5 0.00 0.00 0.00 76 1015.1
20260503232533 27 0 3.2 16.1 0.00 0.00 0.00 76 1015.1
20260503232033 27 32 4.8 16.1 0.00 0.00 0.00 76 1015.1
20260503231540 27 44 6.4 17.7 0.00 0.00 0.00 76 1015.1
20260503231033 27 19 8.0 19.3 0.00 0.00 0.00 76 1015.0
20260503230530 27 352 6.4 19.3 0.00 0.00 0.00 76 1014.9
20260503230047 28 49 12.9 29.0 0.00 0.00 0.00 76 1015.0
20260503225532 28 352 12.9 29.0 0.00 0.00 0.00 75 1014.8
20260503225033 28 24 12.9 20.9 0.00 0.00 0.00 75 1014.6
20260503224547 28 43 11.3 32.2 0.00 0.00 0.00 75 1014.7
20260503224032 28 12 14.5 32.2 0.00 0.00 0.00 75 1014.7
20260503223531 28 34 14.5 22.5 0.00 0.00 0.00 74 1014.7
20260503223046 28 15 8.0 25.7 0.00 0.00 0.00 74 1014.5
20260503222535 28 360 14.5 25.7 0.00 0.00 0.00 74 1014.5
20260503222035 28 352 12.9 25.7 0.00 0.00 0.00 73 1014.5
20260503221549 28 19 11.3 29.0 0.00 0.00 0.00 73 1014.4
20260503221033 28 27 14.5 29.0 0.00 0.00 0.00 72 1014.4
20260503220533 28 347 16.1 27.4 0.00 0.00 0.00 72 1014.3
20260503220047 28 61 14.5 27.4 0.00 0.00 0.00 72 1014.3
20260503215533 28 21 16.1 24.1 0.00 0.00 0.00 72 1014.3
20260503215033 28 352 9.7 24.1 0.00 0.00 0.00 71 1014.3
20260503214546 28 13 12.9 27.4 0.00 0.00 0.00 71 1014.4
20260503214034 29 25 14.5 27.4 0.00 0.00 0.00 70 1014.3
20260503213530 29 41 14.5 27.4 0.00 0.00 0.00 70 1014.4
20260503213046 28 30 12.9 32.2 0.00 0.00 0.00 71 1014.3
20260503212533 28 352 16.1 35.4 0.00 0.00 0.00 71 1014.3
20260503212034 28 41 20.9 32.2 0.00 0.00 0.00 70 1014.4
20260503211546 29 27 19.3 32.2 0.00 0.00 0.00 69 1014.2
20260503211033 29 5 17.7 32.2 0.00 0.00 0.00 69 1014.2
20260503210534 29 59 17.7 32.2 0.00 0.00 0.00 69 1014.1
20260503210042 29 17 11.3 30.6 0.00 0.00 0.00 70 1014.1
20260503205534 29 28 14.5 29.0 0.00 0.00 0.00 69 1014.1
20260503205030 29 336 14.5 29.0 0.00 0.00 0.00 69 1014.2
20260503204544 29 30 19.3 30.6 0.00 0.00 0.00 70 1014.1
20260503204034 29 5 14.5 30.6 0.00 0.00 0.00 70 1014.1
20260503203534 28 21 17.7 29.0 0.00 0.00 0.00 71 1014.2
20260503203044 29 31 19.3 29.0 0.00 0.00 0.00 71 1014.3